• In Hungary
  • List of Countries
  • For 7 days
  • Water Temperature
  • Satellite Maps
  • Weather Map
  • News
  • Weather Widgets
  • user-avatar
    Login

    Hourly Weather Charlotte

    Today, 21 August, Tuesday

    Time Temperature Precipitation Wind Pressure Humidity
    00:00 +25°C° 0.2 mm 1 mps 743 mmHg 92%
    01:00 +24°C° 0 mm 1 mps 744 mmHg 93%
    02:00 +24°C° 0 mm 1 mps 743 mmHg 93%
    03:00 +24°C° 0 mm 1 mps 743 mmHg 94%
    04:00 +24°C° 0 mm 1 mps 743 mmHg 94%
    05:00 +24°C° 0 mm 2 mps 743 mmHg 94%
    06:00 +24°C° 0 mm 2 mps 743 mmHg 93%
    07:00 +24°C° 0 mm 2 mps 743 mmHg 93%
    08:00 +26°C° 0 mm 2 mps 743 mmHg 85%
    09:00 +27°C° 0 mm 3 mps 743 mmHg 78%
    10:00 +29°C° 0 mm 3 mps 743 mmHg 70%
    11:00 +30°C° 0 mm 3 mps 743 mmHg 65%
    12:00 +33°C° 0 mm 4 mps 743 mmHg 60%
    13:00 +34°C° 0 mm 4 mps 742 mmHg 55%
    14:00 +34°C° 0.4 mm 4 mps 742 mmHg 59%
    15:00 +33°C° 0.4 mm 4 mps 741 mmHg 63%
    16:00 +33°C° 0.4 mm 4 mps 741 mmHg 67%
    17:00 +32°C° 0.1 mm 4 mps 741 mmHg 71%
    18:00 +29°C° 0.1 mm 4 mps 741 mmHg 74%
    19:00 +28°C° 0.1 mm 3 mps 741 mmHg 77%
    20:00 +28°C° 0.1 mm 3 mps 741 mmHg 79%
    21:00 +27°C° 0.1 mm 4 mps 741 mmHg 81%
    22:00 +26°C° 0.1 mm 4 mps 742 mmHg 83%
    23:00 +26°C° 0 mm 3 mps 741 mmHg 85%

    Tomorrow, 22 August, Wednesday

    Time Temperature Precipitation Wind Pressure Humidity
    00:00 +25°C° 0 mm 3 mps 741 mmHg 86%
    01:00 +25°C° 0 mm 3 mps 741 mmHg 88%
    02:00 +24°C° 0 mm 2 mps 740 mmHg 90%
    03:00 +24°C° 0 mm 2 mps 740 mmHg 92%
    04:00 +23°C° 0 mm 2 mps 740 mmHg 94%
    05:00 +24°C° 0 mm 2 mps 740 mmHg 92%
    06:00 +24°C° 0 mm 2 mps 740 mmHg 90%
    07:00 +24°C° 0 mm 2 mps 741 mmHg 89%
    08:00 +26°C° 0 mm 2 mps 741 mmHg 78%
    09:00 +28°C° 0 mm 2 mps 741 mmHg 68%
    10:00 +30°C° 0 mm 2 mps 741 mmHg 57%
    11:00 +31°C° 0 mm 2 mps 741 mmHg 55%
    12:00 +32°C° 0 mm 2 mps 741 mmHg 52%
    13:00 +32°C° 0 mm 2 mps 741 mmHg 50%
    14:00 +32°C° 0 mm 2 mps 741 mmHg 53%
    15:00 +31°C° 0 mm 2 mps 740 mmHg 56%
    16:00 +30°C° 0 mm 2 mps 740 mmHg 59%
    17:00 +29°C° 0 mm 2 mps 740 mmHg 62%
    18:00 +28°C° 0 mm 2 mps 740 mmHg 64%
    19:00 +27°C° 0 mm 2 mps 741 mmHg 67%
    20:00 +26°C° 0 mm 2 mps 741 mmHg 67%
    21:00 +25°C° 0 mm 2 mps 742 mmHg 67%
    22:00 +25°C° 0 mm 3 mps 742 mmHg 67%
    23:00 +24°C° 0 mm 3 mps 742 mmHg 68%

    Day after tomorrow, 23 August, Thursday

    Time Temperature Precipitation Wind Pressure Humidity
    00:00 +22°C° 0 mm 3 mps 742 mmHg 69%
    01:00 +22°C° 0 mm 3 mps 742 mmHg 70%
    02:00 +21°C° 0 mm 3 mps 743 mmHg 71%
    03:00 +20°C° 0 mm 3 mps 743 mmHg 72%
    04:00 +19°C° 0 mm 3 mps 743 mmHg 74%
    05:00 +19°C° 0 mm 3 mps 743 mmHg 73%
    06:00 +19°C° 0 mm 4 mps 744 mmHg 73%
    07:00 +18°C° 0 mm 4 mps 744 mmHg 72%
    08:00 +20°C° 0 mm 4 mps 744 mmHg 65%
    09:00 +22°C° 0 mm 4 mps 745 mmHg 58%
    10:00 +25°C° 0 mm 4 mps 745 mmHg 52%
    11:00 +26°C° 0 mm 3 mps 745 mmHg 47%
    12:00 +27°C° 0 mm 3 mps 745 mmHg 43%
    13:00 +29°C° 0 mm 3 mps 745 mmHg 38%
    14:00 +29°C° 0 mm 2 mps 744 mmHg 38%
    15:00 +29°C° 0 mm 2 mps 744 mmHg 37%
    16:00 +29°C° 0 mm 2 mps 743 mmHg 36%
    17:00 +27°C° 0 mm 2 mps 744 mmHg 43%
    18:00 +26°C° 0 mm 2 mps 744 mmHg 49%
    19:00 +24°C° 0 mm 2 mps 744 mmHg 55%
    20:00 +23°C° 0 mm 2 mps 744 mmHg 57%
    21:00 +21°C° 0 mm 2 mps 745 mmHg 59%
    22:00 +20°C° 0 mm 2 mps 746 mmHg 61%
    23:00 +20°C° 0 mm 2 mps 746 mmHg 63%

    24 August, Friday

    Time Temperature Precipitation Wind Pressure Humidity
    00:00 +19°C° 0 mm 2 mps 746 mmHg 65%
    01:00 +18°C° 0 mm 2 mps 746 mmHg 67%
    02:00 +18°C° 0 mm 2 mps 746 mmHg 69%
    03:00 +17°C° 0 mm 2 mps 746 mmHg 71%
    04:00 +17°C° 0 mm 2 mps 746 mmHg 73%
    05:00 +17°C° 0 mm 2 mps 746 mmHg 73%
    06:00 +17°C° 0 mm 2 mps 746 mmHg 74%
    07:00 +17°C° 0 mm 2 mps 747 mmHg 74%
    08:00 +20°C° 0 mm 2 mps 747 mmHg 67%
    09:00 +23°C° 0 mm 2 mps 747 mmHg 61%
    10:00 +26°C° 0 mm 2 mps 748 mmHg 54%
    11:00 +27°C° 0 mm 2 mps 747 mmHg 49%
    12:00 +28°C° 0 mm 2 mps 747 mmHg 45%
    13:00 +29°C° 0 mm 2 mps 747 mmHg 40%
    14:00 +29°C° 0 mm 2 mps 747 mmHg 40%
    15:00 +29°C° 0 mm 2 mps 746 mmHg 40%
    16:00 +30°C° 0 mm 2 mps 746 mmHg 40%
    17:00 +28°C° 0 mm 2 mps 746 mmHg 46%
    18:00 +26°C° 0 mm 2 mps 746 mmHg 53%
    19:00 +24°C° 0 mm 2 mps 747 mmHg 60%
    20:00 +23°C° 0 mm 2 mps 747 mmHg 63%
    21:00 +21°C° 0 mm 2 mps 747 mmHg 66%
    22:00 +21°C° 0 mm 1 mps 748 mmHg 70%
    23:00 +21°C° 0 mm 1 mps 748 mmHg 72%

    25 August, Saturday

    Time Temperature Precipitation Wind Pressure Humidity
    00:00 +20°C° 0 mm 1 mps 748 mmHg 75%
    01:00 +19°C° 0 mm 1 mps 748 mmHg 77%
    02:00 +19°C° 0 mm 1 mps 748 mmHg 79%
    03:00 +19°C° 0 mm 1 mps 748 mmHg 81%
    04:00 +19°C° 0 mm 1 mps 748 mmHg 83%
    05:00 +19°C° 0 mm 1 mps 748 mmHg 83%
    06:00 +19°C° 0 mm 1 mps 748 mmHg 83%
    07:00 +20°C° 0 mm 1 mps 749 mmHg 83%
    08:00 +22°C° 0 mm 1 mps 749 mmHg 75%
    09:00 +25°C° 0 mm 1 mps 749 mmHg 68%
    10:00 +27°C° 0 mm 1 mps 749 mmHg 60%
    11:00 +29°C° 0 mm 1 mps 749 mmHg 55%
    12:00 +30°C° 0 mm 1 mps 749 mmHg 49%
    13:00 +32°C° 0 mm 1 mps 748 mmHg 43%
    14:00 +32°C° 0 mm 1 mps 748 mmHg 42%
    15:00 +32°C° 0 mm 1 mps 748 mmHg 41%
    16:00 +32°C° 0 mm 1 mps 747 mmHg 41%
    17:00 +30°C° 0 mm 1 mps 747 mmHg 46%
    18:00 +28°C° 0 mm 1 mps 747 mmHg 52%
    19:00 +26°C° 0 mm 1 mps 747 mmHg 58%
    20:00 +25°C° 0 mm 1 mps 748 mmHg 60%
    21:00 +25°C° 0 mm 1 mps 748 mmHg 62%
    22:00 +24°C° 0 mm 1 mps 748 mmHg 64%
    23:00 +23°C° 0 mm 1 mps 748 mmHg 66%

    26 August, Sunday

    Time Temperature Precipitation Wind Pressure Humidity
    00:00 +23°C° 0 mm 1 mps 748 mmHg 68%
    01:00 +20°C° 0 mm 0 mps 748 mmHg 70%
    02:00 +20°C° 0 mm 0 mps 748 mmHg 72%
    03:00 +19°C° 0 mm 0 mps 748 mmHg 73%
    04:00 +19°C° 0 mm 0 mps 747 mmHg 74%
    05:00 +20°C° 0 mm 0 mps 748 mmHg 74%
    06:00 +20°C° 0 mm 0 mps 748 mmHg 74%
    07:00 +23°C° 0 mm 1 mps 748 mmHg 74%
    08:00 +23°C° 0 mm 0 mps 748 mmHg 67%
    09:00 +26°C° 0 mm 0 mps 749 mmHg 59%
    10:00 +28°C° 0 mm 0 mps 749 mmHg 52%
    11:00 +30°C° 0 mm 0 mps 748 mmHg 48%
    12:00 +31°C° 0 mm 0 mps 748 mmHg 45%
    13:00 +35°C° 0 mm 1 mps 747 mmHg 42%
    14:00 +35°C° 0 mm 1 mps 747 mmHg 41%
    15:00 +34°C° 0 mm 1 mps 747 mmHg 41%
    16:00 +34°C° 0 mm 1 mps 746 mmHg 41%
    17:00 +32°C° 0 mm 1 mps 746 mmHg 46%
    18:00 +30°C° 0 mm 1 mps 746 mmHg 51%
    19:00 +28°C° 0 mm 1 mps 746 mmHg 56%
    20:00 +28°C° 0 mm 1 mps 746 mmHg 58%
    21:00 +27°C° 0 mm 1 mps 747 mmHg 59%
    22:00 +26°C° 0 mm 1 mps 747 mmHg 61%
    23:00 +25°C° 0 mm 1 mps 747 mmHg 63%
    Show more